Location: Mentone
(34.5413°N, 85.5351°W)
Time: 17:02:01
(UTC-05:00)

Vanguard 3 - All Passes

Search period start: 22 March 2017 00:00
Search period end: 01 April 2017 00:00
Orbit: 508 x 3265 km, 33.3° (Epoch: 21 March)

Date Brightness Start Highest point End Pass type
(mag) Time Alt. Az. Time Alt. Az. Time Alt. Az.
22 Mar - 00:12:48 10° W 00:17:18 74° S 00:20:56 10° E night (unlit)
22 Mar - 02:25:09 10° W 02:28:21 28° SSW 02:31:57 10° SE night (unlit)
22 Mar - 18:31:20 10° SSW 18:39:23 21° SSE 18:45:01 10° ESE daylight
22 Mar - 20:43:53 10° SW 20:52:17 46° SSE 20:57:17 10° E visible
22 Mar - 22:58:17 10° W 23:04:05 77° S 23:08:01 10° E visible
23 Mar - 01:11:28 10° W 01:15:19 48° SSW 01:18:54 10° ESE night (unlit)
23 Mar - 03:24:47 10° SW 03:26:24 12° SSW 03:28:10 10° S night (unlit)
23 Mar - 17:18:16 10° S 17:24:40 15° SSE 17:29:47 10° ESE daylight
23 Mar - 19:28:33 10° SW 19:38:19 36° SSE 19:44:15 10° E visible
23 Mar - 21:43:04 10° WSW 21:50:41 68° S 21:55:15 10° E visible
23 Mar - 23:57:21 10° W 00:02:14 71° S 00:05:56 10° ESE night (unlit)
24 Mar - 02:10:17 10° WSW 02:13:13 22° SSW 02:16:15 10° SSE night (unlit)
24 Mar - 18:13:31 10° SSW 18:23:55 28° SSE 18:30:42 10° E daylight
24 Mar - 20:27:22 10° WSW 20:37:00 55° SSE 20:42:29 10° E visible
24 Mar - 22:42:31 10° W 22:48:58 80° S 22:53:07 10° E visible
25 Mar - 00:56:12 10° W 01:00:13 40° SSW 01:03:41 10° SE night (unlit)
25 Mar - 16:59:22 10° S 17:09:04 20° SSE 17:16:09 10° ESE daylight
25 Mar - 19:11:30 10° SW 19:22:54 44° SSE 19:29:31 10° E visible
25 Mar - 21:26:56 10° WSW 21:35:28 75° S 21:40:23 10° E visible
25 Mar - 23:41:47 10° W 23:47:09 66° SSW 23:50:57 10° ESE visible
26 Mar - 01:55:28 10° WSW 01:58:01 17° SSW 02:00:30 10° SSE night (unlit)
26 Mar - 15:47:26 10° S 15:53:49 13° SSE 15:59:16 10° ESE daylight
26 Mar - 17:55:54 10° SSW 18:08:20 35° SSE 18:16:06 10° E daylight
26 Mar - 20:10:48 10° WSW 20:21:38 64° SSE 20:27:38 10° E visible
26 Mar - 22:26:38 10° W 22:33:50 80° S 22:38:14 10° E visible
27 Mar - 00:40:53 10° W 00:45:04 34° SSW 00:48:27 10° SE night (unlit)
27 Mar - 16:41:04 10° SSW 16:53:20 26° SSE 17:01:52 10° E daylight
27 Mar - 18:54:28 10° SW 19:07:22 53° SSE 19:14:40 10° E daylight
27 Mar - 21:10:43 10° W 21:20:12 80° S 21:25:31 10° E visible
27 Mar - 23:26:07 10° W 23:32:02 60° SSW 23:35:59 10° ESE visible
28 Mar - 01:40:49 10° WSW 01:42:44 13° SSW 01:44:33 10° S night (unlit)
28 Mar - 15:27:47 10° S 15:37:57 18° SE 15:46:04 10° ESE daylight
28 Mar - 17:38:24 10° SW 17:52:38 42° SSE 18:01:18 10° E daylight
28 Mar - 19:54:12 10° WSW 20:06:13 71° SSE 20:12:44 10° E visible
28 Mar - 22:10:39 10° W 22:18:39 79° S 22:23:21 10° E visible
29 Mar - 00:25:29 10° W 00:29:51 29° SSW 00:33:14 10° SE night (unlit)
29 Mar - 14:19:57 10° SSE 14:22:19 10° SE 14:24:35 10° SE daylight
29 Mar - 16:23:05 10° SSW 16:37:27 32° SSE 16:47:14 10° E daylight
29 Mar - 18:37:28 10° WSW 18:51:46 60° SSE 18:59:44 10° E daylight
29 Mar - 20:54:24 10° W 21:04:54 83° S 21:10:39 10° E visible
29 Mar - 23:10:19 10° W 23:16:50 55° SSW 23:20:59 10° ESE visible
30 Mar - 01:26:46 10° SW 01:27:22 10° SW 01:27:57 10° SSW night (unlit)
30 Mar - 15:09:05 10° S 15:21:55 23° SE 15:31:54 10° E daylight
30 Mar - 17:21:01 10° SW 17:36:49 49° SSE 17:46:21 10° E daylight
30 Mar - 19:37:32 10° WSW 19:50:42 77° S 19:57:48 10° E visible
30 Mar - 21:54:33 10° W 22:03:24 76° S 22:08:28 10° ESE visible
31 Mar - 00:10:00 10° W 00:14:34 26° SSW 00:17:58 10° SSE night (unlit)
31 Mar - 13:57:47 10° SSE 14:06:14 14° SE 14:13:45 10° ESE daylight
31 Mar - 16:05:20 10° SSW 16:21:25 38° SSE 16:32:20 10° E daylight
31 Mar - 18:20:29 10° WSW 18:36:02 67° SSE 18:44:45 10° E daylight
31 Mar - 20:38:01 10° W 20:49:31 84° S 20:55:44 10° E visible
31 Mar - 22:54:24 10° W 23:01:34 50° SSW 23:05:59 10° SE visible
